SKW814 KSFO-KMRY

Flight info

Callsign SKW814
Flight time 0h 32m
Altitude 17000
Route GAPP7 SFO EUGEN
Aircraft E75L/M-SDE3GILORVW/S

Departure

Time 2026-04-21 13:07
Airport San Francisco International Airport (KSFO)

Arrival

Time 2026-04-21 13:40
Airport Monterey Regional Airport (KMRY)
Time Latitude Longitude Altitude Speed Heading
2026-04-21 12:54 37.61923 -122.38361 20 ft 0 kts 291°
2026-04-21 12:58 37.61919 -122.38349 20 ft 4 kts 291°
2026-04-21 12:58 37.61908 -122.38319 23 ft 4 kts 302°
2026-04-21 12:58 37.61890 -122.38301 21 ft 4 kts
2026-04-21 12:59 37.61885 -122.38303 21 ft 0 kts 27°
2026-04-21 13:01 37.61886 -122.38302 20 ft 1 kts 27°
2026-04-21 13:01 37.61914 -122.38285 20 ft 7 kts 27°
2026-04-21 13:01 37.61962 -122.38242 20 ft 9 kts 63°
2026-04-21 13:01 37.61951 -122.38166 21 ft 9 kts 119°
2026-04-21 13:02 37.61921 -122.38097 21 ft 9 kts 119°
2026-04-21 13:02 37.61893 -122.38032 20 ft 8 kts 119°
2026-04-21 13:02 37.61834 -122.37883 20 ft 12 kts 110°
2026-04-21 13:03 37.61802 -122.37779 20 ft 14 kts 111°
2026-04-21 13:03 37.61763 -122.37655 20 ft 16 kts 111°
2026-04-21 13:03 37.61722 -122.37519 20 ft 17 kts 116°
2026-04-21 13:03 37.61664 -122.37382 20 ft 18 kts 118°
2026-04-21 13:04 37.61605 -122.37239 20 ft 18 kts 117°
2026-04-21 13:04 37.61545 -122.37099 21 ft 18 kts 118°
2026-04-21 13:04 37.61489 -122.36965 20 ft 17 kts 121°
2026-04-21 13:04 37.61415 -122.36854 20 ft 16 kts 133°
2026-04-21 13:05 37.61349 -122.36740 20 ft 16 kts 118°
2026-04-21 13:05 37.61297 -122.36616 21 ft 16 kts 118°
2026-04-21 13:05 37.61244 -122.36491 20 ft 17 kts 117°
2026-04-21 13:05 37.61180 -122.36340 20 ft 21 kts 117°
2026-04-21 13:06 37.61110 -122.36175 20 ft 21 kts 117°
2026-04-21 13:06 37.61049 -122.36010 20 ft 20 kts 95°
2026-04-21 13:06 37.61103 -122.35903 20 ft 14 kts 28°
2026-04-21 13:06 37.61188 -122.35887 20 ft 12 kts 316°
2026-04-21 13:07 37.61250 -122.36030 20 ft 39 kts 298°
2026-04-21 13:07 37.61494 -122.36611 20 ft 111 kts 298°
2026-04-21 13:07 37.61961 -122.37712 53 ft 169 kts 298°
2026-04-21 13:07 37.62544 -122.39112 681 ft 184 kts 295°
2026-04-21 13:08 37.63120 -122.40529 1557 ft 184 kts 294°
2026-04-21 13:08 37.63738 -122.41956 2322 ft 183 kts 293°
2026-04-21 13:08 37.64350 -122.43383 2855 ft 194 kts 292°
2026-04-21 13:08 37.64993 -122.44927 3454 ft 205 kts 293°
2026-04-21 13:09 37.65687 -122.46594 3966 ft 221 kts 294°
2026-04-21 13:09 37.66419 -122.48277 4896 ft 214 kts 295°
2026-04-21 13:09 37.67152 -122.49892 5723 ft 215 kts 294°
2026-04-21 13:09 37.67877 -122.51591 6315 ft 224 kts 291°
2026-04-21 13:10 37.68581 -122.53394 6851 ft 233 kts 290°
2026-04-21 13:10 37.69093 -122.55330 7457 ft 232 kts 274°
2026-04-21 13:10 37.69249 -122.57317 8254 ft 223 kts 267°
2026-04-21 13:10 37.69324 -122.59302 8803 ft 232 kts 265°
2026-04-21 13:11 37.69343 -122.61386 9326 ft 240 kts 263°
2026-04-21 13:11 37.69325 -122.63487 10025 ft 239 kts 263°
2026-04-21 13:11 37.69315 -122.65611 10437 ft 251 kts 263°
2026-04-21 13:11 37.69281 -122.67905 10588 ft 272 kts 263°
2026-04-21 13:12 37.69232 -122.70374 10737 ft 290 kts 263°
2026-04-21 13:12 37.69167 -122.72979 11023 ft 302 kts 263°
2026-04-21 13:12 37.69097 -122.75649 11508 ft 306 kts 262°
2026-04-21 13:12 37.68593 -122.78207 12013 ft 299 kts 238°
2026-04-21 13:13 37.67245 -122.80137 12581 ft 294 kts 212°
2026-04-21 13:13 37.65348 -122.81021 13198 ft 295 kts 187°
2026-04-21 13:13 37.63319 -122.80775 13229 ft 293 kts 164°
2026-04-21 13:13 37.61465 -122.79894 13428 ft 279 kts 162°
2026-04-21 13:14 37.59704 -122.78927 13149 ft 272 kts 156°
2026-04-21 13:14 37.58101 -122.77730 13026 ft 264 kts 154°
2026-04-21 13:14 37.56482 -122.76549 13290 ft 274 kts 154°
2026-04-21 13:14 37.54805 -122.75333 13834 ft 281 kts 154°
2026-04-21 13:15 37.53116 -122.74112 14588 ft 275 kts 154°
2026-04-21 13:15 37.51427 -122.72895 15038 ft 283 kts 155°
2026-04-21 13:15 37.49696 -122.71649 15040 ft 288 kts 154°
2026-04-21 13:15 37.47965 -122.70402 15016 ft 286 kts 155°
2026-04-21 13:16 37.46238 -122.69160 15020 ft 285 kts 155°
2026-04-21 13:16 37.44512 -122.67923 15015 ft 285 kts 155°
2026-04-21 13:16 37.42788 -122.66687 15012 ft 285 kts 155°
2026-04-21 13:16 37.41062 -122.65452 15009 ft 285 kts 155°
2026-04-21 13:17 37.39336 -122.64217 15008 ft 285 kts 155°
2026-04-21 13:17 37.37609 -122.62984 15007 ft 285 kts 155°
2026-04-21 13:17 37.35884 -122.61751 14989 ft 286 kts 155°
2026-04-21 13:17 37.34160 -122.60520 14990 ft 284 kts 155°
2026-04-21 13:18 37.32447 -122.59298 14990 ft 283 kts 155°
2026-04-21 13:18 37.30734 -122.58077 14991 ft 283 kts 155°
2026-04-21 13:18 37.29021 -122.56857 14991 ft 283 kts 155°
2026-04-21 13:18 37.27306 -122.55635 14991 ft 283 kts 155°
2026-04-21 13:19 37.25591 -122.54415 14990 ft 284 kts 155°
2026-04-21 13:19 37.23873 -122.53193 14990 ft 284 kts 155°
2026-04-21 13:19 37.22155 -122.51972 14990 ft 284 kts 155°
2026-04-21 13:19 37.20439 -122.50751 14990 ft 284 kts 155°
2026-04-21 13:20 37.19301 -122.49945 14982 ft 284 kts 155°
2026-04-21 13:20 37.16997 -122.48309 14983 ft 285 kts 155°
2026-04-21 13:20 37.15274 -122.47086 14983 ft 284 kts 155°
2026-04-21 13:20 37.13554 -122.45856 14982 ft 285 kts 154°
2026-04-21 13:21 37.11961 -122.44403 14979 ft 289 kts 147°
2026-04-21 13:21 37.10368 -122.42876 14981 ft 288 kts 148°
2026-04-21 13:21 37.08767 -122.41360 14981 ft 288 kts 148°
2026-04-21 13:21 37.07163 -122.39854 14981 ft 288 kts 148°
2026-04-21 13:22 37.05560 -122.38351 14979 ft 288 kts 149°
2026-04-21 13:22 37.03955 -122.36852 14980 ft 288 kts 148°
2026-04-21 13:22 37.02352 -122.35358 14983 ft 287 kts 149°
2026-04-21 13:22 37.00752 -122.33864 14989 ft 284 kts 149°
2026-04-21 13:23 36.99179 -122.32400 14979 ft 280 kts 149°
2026-04-21 13:23 36.97611 -122.30944 14981 ft 281 kts 149°
2026-04-21 13:23 36.96041 -122.29489 14984 ft 281 kts 149°
2026-04-21 13:23 36.94471 -122.28032 14991 ft 281 kts 149°
2026-04-21 13:24 36.92898 -122.26577 14989 ft 281 kts 149°
2026-04-21 13:24 36.91326 -122.25121 14985 ft 281 kts 149°
2026-04-21 13:24 36.89754 -122.23668 14988 ft 281 kts 149°
2026-04-21 13:24 36.88181 -122.22213 14989 ft 281 kts 149°
2026-04-21 13:25 36.86605 -122.20758 14994 ft 282 kts 149°
2026-04-21 13:25 36.85021 -122.19295 14987 ft 283 kts 149°
2026-04-21 13:25 36.83438 -122.17834 14990 ft 283 kts 149°
2026-04-21 13:25 36.81854 -122.16373 14991 ft 283 kts 149°
2026-04-21 13:26 36.80270 -122.14913 14994 ft 283 kts 149°
2026-04-21 13:26 36.78687 -122.13454 14995 ft 283 kts 149°
2026-04-21 13:26 36.77103 -122.11995 14998 ft 283 kts 149°
2026-04-21 13:26 36.75519 -122.10538 14998 ft 283 kts 150°
2026-04-21 13:27 36.73936 -122.09082 14997 ft 283 kts 150°
2026-04-21 13:27 36.72349 -122.07623 14956 ft 285 kts 150°
2026-04-21 13:27 36.70817 -122.05951 14076 ft 306 kts 136°
2026-04-21 13:27 36.69847 -122.03479 13073 ft 334 kts 111°
2026-04-21 13:28 36.69732 -122.00494 11997 ft 359 kts 88°
2026-04-21 13:28 36.70558 -121.97483 10902 ft 379 kts 65°
2026-04-21 13:28 36.72233 -121.94933 9803 ft 393 kts 44°
2026-04-21 13:28 36.74602 -121.93257 9057 ft 388 kts 18°
2026-04-21 13:29 36.77185 -121.92656 8664 ft 369 kts
2026-04-21 13:29 36.79662 -121.92381 8564 ft 344 kts 359°
2026-04-21 13:29 36.81914 -121.92882 8460 ft 318 kts 333°
2026-04-21 13:29 36.83759 -121.94198 8380 ft 297 kts 320°
2026-04-21 13:30 36.85174 -121.95965 8235 ft 282 kts 294°
2026-04-21 13:30 36.85719 -121.98200 8053 ft 260 kts 265°
2026-04-21 13:30 36.85441 -122.00343 7790 ft 245 kts 250°
2026-04-21 13:30 36.85018 -122.02371 7540 ft 239 kts 251°
2026-04-21 13:31 36.84607 -122.04360 7292 ft 234 kts 251°
2026-04-21 13:31 36.84199 -122.06305 7042 ft 229 kts 251°
2026-04-21 13:31 36.83792 -122.08215 6796 ft 226 kts 251°
2026-04-21 13:31 36.83379 -122.10093 6549 ft 223 kts 251°
2026-04-21 13:32 36.82952 -122.11939 6300 ft 219 kts 247°
2026-04-21 13:32 36.82099 -122.13484 5810 ft 221 kts 216°
2026-04-21 13:32 36.80651 -122.14124 5364 ft 229 kts 184°
2026-04-21 13:32 36.79105 -122.13649 4946 ft 231 kts 158°
2026-04-21 13:33 36.77814 -122.12456 4505 ft 230 kts 144°
2026-04-21 13:33 36.76603 -122.11169 4040 ft 227 kts 144°
2026-04-21 13:33 36.75401 -122.09904 3576 ft 225 kts 144°
2026-04-21 13:33 36.74361 -122.08820 3175 ft 224 kts 144°
2026-04-21 13:34 36.74066 -122.08517 3073 ft 224 kts 144°
2026-04-21 13:34 36.72868 -122.07291 2610 ft 222 kts 144°
2026-04-21 13:34 36.71679 -122.06080 2141 ft 218 kts 144°
2026-04-21 13:34 36.70915 -122.05300 1824 ft 211 kts 144°
2026-04-21 13:35 36.69794 -122.04182 1404 ft 201 kts 144°
2026-04-21 13:35 36.68766 -122.03173 1349 ft 177 kts 144°
2026-04-21 13:35 36.67864 -122.02292 1328 ft 154 kts 144°
2026-04-21 13:35 36.67062 -122.01495 1594 ft 138 kts 145°
2026-04-21 13:36 36.66332 -122.00744 1730 ft 136 kts 144°
2026-04-21 13:36 36.65599 -121.99970 1524 ft 140 kts 144°
2026-04-21 13:36 36.64854 -121.99249 1511 ft 132 kts 148°
2026-04-21 13:36 36.64107 -121.98555 1498 ft 135 kts 146°
2026-04-21 13:37 36.63361 -121.97826 1522 ft 138 kts 145°
2026-04-21 13:37 36.62819 -121.96809 1524 ft 144 kts 114°
2026-04-21 13:37 36.62497 -121.95639 1518 ft 141 kts 117°
2026-04-21 13:37 36.62086 -121.94537 1508 ft 139 kts 118°
2026-04-21 13:38 36.61718 -121.93438 1504 ft 137 kts 115°
2026-04-21 13:38 36.61349 -121.92311 1378 ft 147 kts 116°
2026-04-21 13:38 36.60946 -121.91134 1166 ft 147 kts 116°
2026-04-21 13:38 36.60558 -121.89974 954 ft 144 kts 115°
2026-04-21 13:39 36.60178 -121.88836 752 ft 140 kts 115°
2026-04-21 13:39 36.59808 -121.87734 571 ft 137 kts 115°
2026-04-21 13:39 36.59454 -121.86665 394 ft 130 kts 115°
2026-04-21 13:39 36.59118 -121.85663 252 ft 122 kts 115°
2026-04-21 13:40 36.58809 -121.84755 218 ft 100 kts 114°
2026-04-21 13:40 36.58598 -121.84131 215 ft 57 kts 113°
2026-04-21 13:40 36.58467 -121.83736 208 ft 27 kts 113°
2026-04-21 13:40 36.58432 -121.83638 214 ft 16 kts 124°
2026-04-21 13:41 36.58349 -121.83658 218 ft 15 kts 257°
2026-04-21 13:41 36.58385 -121.83791 210 ft 18 kts 293°
2026-04-21 13:41 36.58436 -121.83947 213 ft 21 kts 291°
2026-04-21 13:41 36.58487 -121.84102 213 ft 18 kts 292°
2026-04-21 13:42 36.58536 -121.84243 211 ft 19 kts 293°
2026-04-21 13:42 36.58588 -121.84399 210 ft 20 kts 292°
2026-04-21 13:42 36.58638 -121.84546 212 ft 18 kts 294°
2026-04-21 13:42 36.58698 -121.84684 208 ft 19 kts 292°
2026-04-21 13:43 36.58747 -121.84830 211 ft 16 kts 292°
2026-04-21 13:43 36.58763 -121.84945 207 ft 11 kts 272°
2026-04-21 13:43 36.58773 -121.85017 210 ft 3 kts 292°
2026-04-21 13:43 36.58777 -121.85028 207 ft 0 kts 293°